Location: Unspecified
(0.0000°N, 0.0000°E)
Time: 08:29:33
(UTC+00:00)

Vanguard 2 - Pass Details

Date: 27 October 2021
Orbit: 554 x 2936 km, 32.9° (Epoch: 06 December)

Event Time Altitude Azimuth Distance (km) Brightness Sun altitude
Rises 06:49:51 0° 333° (NNW) 3,375 10.5 16.1°
Reaches altitude 10° 06:54:44 10° 10° (N) 2,054 9.8 17.3°
Maximum altitude 06:55:50 11° 25° (NNE) 1,938 9.8 17.5°
Drops below altitude 10° 06:56:53 10° 39° (NE) 1,933 10.0 17.8°
Sets 07:00:50 0° 80° (E) 2,715 11.6 18.7°
